Overview Statistics Trail Chart Weather Telemetry Raw packets
 

This is the latest recevied weather packets stored in our database for station/object IU5JAE-13. If no packets are shown the sender has not sent any weather packets the latest 10 day(s).

<< 25 26 27 28 29 30 31 >>
Time Temp. Humidity Pressure Rain* Wind** Luminosity Snow
1788328532 20.56° C 82% 1020.4 hPa 0 mm - 58 W/m² -
1788327930 20.56° C 81% 1020.3 hPa 0 mm - 43 W/m² -
1788327327 20° C 84% 1020.1 hPa 0 mm - 30 W/m² -
1788326725 18.89° C 88% 1020.1 hPa 0 mm - 25 W/m² -
1788326122 17.78° C 91% 1020.2 hPa 0 mm - 18 W/m² -
1788325520 17.78° C 91% 1020 hPa 0 mm - 12 W/m² -
1788324917 17.78° C 91% 1020 hPa 0 mm - 6 W/m² -
1788324335 17.78° C 91% 1019.9 hPa 0 mm - 3 W/m² -
1788323733 17.78° C 91% 1019.9 hPa 0 mm - 1 W/m² -
1788323130 17.78° C 91% 1019.8 hPa 0 mm - 0 W/m² -
1788322528 17.78° C 91% 1019.9 hPa 0 mm - 0 W/m² -
1788321925 17.22° C 92% 1019.8 hPa 0 mm - 0 W/m² -
1788321323 17.22° C 93% 1019.7 hPa 0 mm - 0 W/m² -
1788320721 17.22° C 93% 1019.8 hPa 0 mm - 0 W/m² -
1788320118 17.22° C 93% 1019.9 hPa 0 mm - 0 W/m² -
1788319516 17.22° C 93% 1020 hPa 0 mm - 0 W/m² -
1788318933 17.22° C 92% 1019.9 hPa 0 mm - 0 W/m² -
1788318331 17.22° C 92% 1019.9 hPa 0 mm - 0 W/m² -
1788317728 17.78° C 91% 1019.9 hPa 0 mm - 0 W/m² -
1788317126 17.78° C 91% 1020 hPa 0 mm - 0 W/m² -
1788316525 17.78° C 91% 1020 hPa 0 mm - 0 W/m² -
1788315921 17.78° C 91% 1020 hPa 0 mm - 0 W/m² -
1788315319 17.78° C 91% 1020 hPa 0 mm - 0 W/m² -
1788314716 17.78° C 91% 1020 hPa 0 mm - 0 W/m² -
1788314134 17.78° C 90% 1020 hPa 0 mm - 0 W/m² -

* Rain latest hour (hover to see other rain measurements)
** Current wind speed in m/s (hover to see current wind gust speed)